EN

Hourly Weather Kyzylzhar (Saryagashskiy rayon)

Today, 27 November, Friday

Time Temperature Precipitation Wind Pressure Humidity
00:00 +4°C° 0 mm 1 mps 725 mmHg 57%
01:00 +4°C° 0 mm 1 mps 725 mmHg 56%
02:00 +4°C° 0 mm 1 mps 725 mmHg 55%
03:00 +4°C° 0 mm 1 mps 725 mmHg 54%
04:00 +4°C° 0 mm 2 mps 725 mmHg 54%
05:00 +4°C° 0 mm 2 mps 724 mmHg 56%
06:00 +4°C° 0 mm 2 mps 724 mmHg 55%
07:00 +4°C° 0 mm 2 mps 724 mmHg 54%
08:00 +5°C° 0 mm 1 mps 724 mmHg 53%
09:00 +5°C° 0 mm 2 mps 724 mmHg 56%
10:00 +6°C° 0 mm 2 mps 724 mmHg 60%
11:00 +7°C° 0 mm 2 mps 724 mmHg 63%
12:00 +9°C° 0 mm 1 mps 724 mmHg 63%
13:00 +9°C° 0 mm 1 mps 724 mmHg 63%
14:00 +10°C° 0 mm 1 mps 723 mmHg 62%
15:00 +9°C° 0 mm 1 mps 723 mmHg 60%
16:00 +9°C° 0 mm 1 mps 723 mmHg 58%
17:00 +7°C° 0 mm 2 mps 723 mmHg 55%
18:00 +7°C° 0 mm 2 mps 724 mmHg 56%
19:00 +7°C° 0 mm 3 mps 724 mmHg 56%
20:00 +7°C° 0 mm 3 mps 724 mmHg 56%
21:00 +7°C° 0 mm 3 mps 724 mmHg 57%
22:00 +7°C° 0 mm 3 mps 724 mmHg 58%
23:00 +5°C° 0 mm 3 mps 725 mmHg 59%

Tomorrow, 28 November, Saturday

Time Temperature Precipitation Wind Pressure Humidity
00:00 +6°C° 0 mm 2 mps 725 mmHg 60%
01:00 +5°C° 0 mm 2 mps 726 mmHg 62%
02:00 +5°C° 0 mm 1 mps 726 mmHg 63%
03:00 +3°C° 1.8 mm 2 mps 728 mmHg 75%
04:00 +2°C° 1.8 mm 3 mps 729 mmHg 86%
05:00 0°C° 1.8 mm 4 mps 731 mmHg 98%
06:00 0°C° 2.1 mm 3 mps 732 mmHg 97%
07:00 0°C° 2.1 mm 3 mps 733 mmHg 96%
08:00 0°C° 2.1 mm 3 mps 734 mmHg 94%
09:00 0°C° 0.2 mm 3 mps 735 mmHg 94%
10:00 0°C° 0.2 mm 3 mps 735 mmHg 93%
11:00 +1°C° 0.2 mm 3 mps 736 mmHg 93%
12:00 +2°C° 0.1 mm 2 mps 736 mmHg 90%
13:00 +2°C° 0.1 mm 2 mps 736 mmHg 87%
14:00 +2°C° 0.1 mm 2 mps 737 mmHg 85%
15:00 +2°C° 0 mm 2 mps 737 mmHg 83%
16:00 +2°C° 0 mm 1 mps 737 mmHg 82%
17:00 0°C° 0 mm 0 mps 737 mmHg 80%
18:00 +1°C° 0 mm 1 mps 737 mmHg 79%
19:00 +1°C° 0 mm 1 mps 737 mmHg 78%
20:00 0°C° 0 mm 1 mps 737 mmHg 76%
21:00 0°C° 0 mm 1 mps 737 mmHg 74%
22:00 -3°C° 0 mm 2 mps 737 mmHg 72%
23:00 -3°C° 0 mm 2 mps 737 mmHg 70%

Day after tomorrow, 29 November, Sunday

Time Temperature Precipitation Wind Pressure Humidity
00:00 -3°C° 0 mm 2 mps 737 mmHg 68%
01:00 -3°C° 0 mm 2 mps 737 mmHg 67%
02:00 -4°C° 0 mm 3 mps 737 mmHg 65%
03:00 -4°C° 0 mm 3 mps 737 mmHg 64%
04:00 -5°C° 0 mm 3 mps 736 mmHg 64%
05:00 -5°C° 0 mm 3 mps 736 mmHg 63%
06:00 -5°C° 0 mm 3 mps 736 mmHg 61%
07:00 -5°C° 0 mm 3 mps 736 mmHg 60%
08:00 -5°C° 0 mm 3 mps 736 mmHg 58%
09:00 -2°C° 0 mm 2 mps 736 mmHg 57%
10:00 -1°C° 0 mm 2 mps 736 mmHg 56%
11:00 +2°C° 0 mm 2 mps 736 mmHg 54%
12:00 +2°C° 0 mm 2 mps 735 mmHg 55%
13:00 +3°C° 0 mm 2 mps 735 mmHg 56%
14:00 +3°C° 0 mm 2 mps 735 mmHg 57%
15:00 +2°C° 0 mm 2 mps 734 mmHg 58%
16:00 +2°C° 0 mm 1 mps 734 mmHg 60%
17:00 0°C° 0 mm 1 mps 734 mmHg 61%
18:00 0°C° 0 mm 1 mps 734 mmHg 60%
19:00 0°C° 0 mm 1 mps 734 mmHg 59%
20:00 -1°C° 0 mm 1 mps 734 mmHg 59%
21:00 -1°C° 0 mm 1 mps 734 mmHg 57%
22:00 -1°C° 0 mm 1 mps 733 mmHg 55%
23:00 -1°C° 0 mm 1 mps 733 mmHg 54%

30 November, Monday

Time Temperature Precipitation Wind Pressure Humidity
00:00 -1°C° 0 mm 1 mps 733 mmHg 52%
01:00 -3°C° 0 mm 2 mps 732 mmHg 51%
02:00 -3°C° 0 mm 2 mps 732 mmHg 50%
03:00 -3°C° 0 mm 2 mps 732 mmHg 49%
04:00 -3°C° 0 mm 2 mps 732 mmHg 49%
05:00 -3°C° 0 mm 2 mps 731 mmHg 48%
06:00 -1°C° 0 mm 1 mps 731 mmHg 48%
07:00 -1°C° 0 mm 1 mps 731 mmHg 47%
08:00 -1°C° 0 mm 1 mps 730 mmHg 47%
09:00 0°C° 0 mm 1 mps 730 mmHg 47%
10:00 +2°C° 0 mm 1 mps 730 mmHg 48%
11:00 +3°C° 0 mm 1 mps 730 mmHg 49%
12:00 +4°C° 0 mm 1 mps 729 mmHg 49%
13:00 +4°C° 0 mm 1 mps 729 mmHg 49%
14:00 +5°C° 0 mm 1 mps 728 mmHg 49%
15:00 +4°C° 0 mm 1 mps 728 mmHg 50%
16:00 +2°C° 0 mm 1 mps 727 mmHg 51%
17:00 +1°C° 0 mm 1 mps 727 mmHg 52%
18:00 +1°C° 0 mm 1 mps 727 mmHg 52%
19:00 +1°C° 0 mm 1 mps 727 mmHg 53%
20:00 +1°C° 0 mm 1 mps 727 mmHg 53%
21:00 +1°C° 0.1 mm 1 mps 727 mmHg 54%
22:00 +2°C° 0.1 mm 1 mps 727 mmHg 55%
23:00 +2°C° 0.1 mm 1 mps 727 mmHg 55%

1 December, Tuesday

Time Temperature Precipitation Wind Pressure Humidity
00:00 +2°C° 0.1 mm 1 mps 727 mmHg 56%
01:00 +2°C° 0.1 mm 1 mps 726 mmHg 57%
02:00 +2°C° 0.1 mm 1 mps 726 mmHg 58%
03:00 +2°C° 0 mm 1 mps 726 mmHg 58%
04:00 +2°C° 0 mm 1 mps 726 mmHg 57%
05:00 +2°C° 0 mm 1 mps 726 mmHg 56%
06:00 +2°C° 0.1 mm 1 mps 727 mmHg 57%
07:00 +2°C° 0.1 mm 1 mps 727 mmHg 59%
08:00 +1°C° 0.1 mm 2 mps 727 mmHg 60%
09:00 +2°C° 0 mm 2 mps 727 mmHg 62%
10:00 +3°C° 0 mm 2 mps 728 mmHg 63%
11:00 +4°C° 0 mm 2 mps 728 mmHg 65%
12:00 +5°C° 0.1 mm 1 mps 728 mmHg 70%
13:00 +5°C° 0.1 mm 1 mps 728 mmHg 75%
14:00 +5°C° 0.1 mm 1 mps 728 mmHg 80%
15:00 +5°C° 0.4 mm 1 mps 728 mmHg 84%
16:00 +4°C° 0.4 mm 2 mps 728 mmHg 88%
17:00 +4°C° 0.4 mm 2 mps 728 mmHg 92%
18:00 +4°C° 0.1 mm 2 mps 728 mmHg 92%
19:00 +5°C° 0.1 mm 2 mps 728 mmHg 91%
20:00 +5°C° 0.1 mm 2 mps 729 mmHg 91%
21:00 +5°C° 0 mm 2 mps 728 mmHg 88%
22:00 +5°C° 0 mm 2 mps 728 mmHg 86%
23:00 +5°C° 0 mm 2 mps 728 mmHg 83%

2 December, Wednesday

Time Temperature Precipitation Wind Pressure Humidity
00:00 +5°C° 0 mm 2 mps 728 mmHg 81%
01:00 +4°C° 0 mm 2 mps 728 mmHg 78%
02:00 +4°C° 0 mm 2 mps 728 mmHg 75%
03:00 +4°C° 0 mm 2 mps 728 mmHg 76%
04:00 +5°C° 0 mm 1 mps 728 mmHg 76%
05:00 +5°C° 0 mm 1 mps 728 mmHg 77%
06:00 +4°C° 0 mm 1 mps 728 mmHg 77%
07:00 +3°C° 0 mm 0 mps 728 mmHg 78%
08:00 +3°C° 0 mm 0 mps 728 mmHg 79%
09:00 +4°C° 0 mm 0 mps 728 mmHg 78%
10:00 +5°C° 0 mm 0 mps 728 mmHg 77%
11:00 +7°C° 0 mm 0 mps 728 mmHg 76%
12:00 +7°C° 0 mm 0 mps 728 mmHg 75%
13:00 +7°C° 0 mm 0 mps 728 mmHg 74%
14:00 +9°C° 0 mm 1 mps 728 mmHg 73%
15:00 +8°C° 0 mm 1 mps 728 mmHg 74%
16:00 +7°C° 0 mm 1 mps 727 mmHg 75%
17:00 +7°C° 0 mm 1 mps 727 mmHg 76%
18:00 +7°C° 0 mm 1 mps 727 mmHg 76%
19:00 +6°C° 0 mm 1 mps 727 mmHg 76%
20:00 +5°C° 0 mm 2 mps 728 mmHg 77%
21:00 +5°C° 0 mm 2 mps 727 mmHg 76%
22:00 +5°C° 0 mm 2 mps 727 mmHg 75%
23:00 +5°C° 0 mm 2 mps 727 mmHg 74%
Show more

We Need Your Consent

Meteoprog and our Service Providers may store and access personal data such as cookies, device identifiers or other similar technologies on your device and process such data to personalise content and ads, as well as provide social media features and to analyse the traffic.

  • Store and/or access information on your device

    Cookies, device identifiers or other information can be stored or accessed on your device for the purposes indicated above.

  • Personalised ads and content, ad and content measurement, audience insights, and products development

    Ads and content can be personalised based on a profile. More data can be added to better personalise ads and content. Ad and content performance can be measured. Insights about the audience who saw the ads and content can be derived. Such data can be used to develop or improve user’s experience, systems and software.

By clicking ‘I Agree’ you will allow the use of indicated cookies, device identifiers, web beacons or other similar technologies. Your settings can be changed in the browser on your device.

For certain purposes, legitimate interests may be relied on, rather than consent. You can read more about this in our Privacy and Cookie Policy.